Davenport, OK

11:13 PM CST on February 19, 2017 (GMT -0600)
Chandler Municipal

Weather History for KCQB - March, 2014

Change the Weather History Date:

Thursday, March 13, 2014

  Actual Average (KCUH) Record (KCUH)
Temperature  
Mean Temperature 53 °F -  
Max Temperature 71 °F 60 °F 90 °F (1967)
Min Temperature 35 °F 37 °F 19 °F (1951)
Degree Days  
Heating Degree Days 12    
Growing Degree Days 3 (Base 50)    
Moisture  
Dew Point 31 °F    
Average Humidity 47    
Maximum Humidity 81    
Minimum Humidity 23    
Precipitation  
Precipitation 0.00 in - - ()
Sea Level Pressure  
Sea Level Pressure 30.13 in    
Wind  
Wind Speed 8 mph (SW)    
Max Wind Speed 22 mph    
Max Gust Speed 26 mph    
Visibility 10 miles    
Events      
Averages and records for this station are not official NWS values.
T = Trace of Precipitation, MM = Missing Value Source: NWS Daily Summary

Daily Weather History Graph

Daily Weather History Graph

Search for Another Location

Airport or City:

Trip Planner

Search our weather history database for the weather conditions in past years. The results will help you decide how hot, cold, wet, or windy it might be!

Date:

Astronomy

Mar. 13, 2014 Rise Set
Actual Time 7:40 AM CDT 7:33 PM CDT
Civil Twilight 7:15 AM CDT 7:58 PM CDT
Nautical Twilight 6:45 AM CDT 8:28 PM CDT
Astronomical Twilight 6:15 AM CDT 8:58 PM CDT
Moon 5:04 PM CDT (3/13) 5:43 AM CDT (3/13)
Length of Visible Light 12h 43m
Length of Day
11h 52m
Waxing Gibbous, 91% of the Moon is Illuminated
Mar 13
Waxing Gibbous
Mar 16
Full
Mar 23
Last Quarter
Mar 30
New
Apr 7
First Quarter

Hourly Weather History & Observations

Time (CDT) Temp. Windchill Dew Point Humidity Pressure Visibility Wind Dir Wind Speed Gust Speed Precip Events Conditions
12:15 AM 42.8 °F 39.3 °F 32.0 °F 66% 30.23 in 10.0 mi West 5.8 mph - N/A   Clear
12:35 AM 42.8 °F 39.3 °F 32.0 °F 66% 30.23 in 10.0 mi West 5.8 mph - N/A   Clear
12:55 AM 42.8 °F 39.3 °F 32.0 °F 66% 30.22 in 10.0 mi West 5.8 mph - N/A   Clear
1:15 AM 42.8 °F 39.3 °F 32.0 °F 66% 30.22 in 10.0 mi West 5.8 mph - N/A   Clear
1:35 AM 41.0 °F 36.4 °F 32.0 °F 70% 30.22 in 10.0 mi West 6.9 mph - N/A   Clear
1:55 AM 41.0 °F 37.1 °F 32.0 °F 70% 30.22 in 10.0 mi West 5.8 mph - N/A   Clear
2:15 AM 41.0 °F 37.1 °F 32.0 °F 70% 30.22 in 10.0 mi West 5.8 mph - N/A   Clear
2:35 AM 41.0 °F 36.4 °F 32.0 °F 70% 30.22 in 10.0 mi West 6.9 mph - N/A   Clear
2:55 AM 41.0 °F 36.4 °F 32.0 °F 70% 30.22 in 10.0 mi West 6.9 mph - N/A   Clear
3:15 AM 41.0 °F 36.4 °F 32.0 °F 70% 30.21 in 10.0 mi West 6.9 mph - N/A   Clear
3:35 AM 41.0 °F 36.4 °F 32.0 °F 70% 30.21 in 10.0 mi West 6.9 mph - N/A   Clear
3:55 AM 39.2 °F 35.0 °F 30.2 °F 70% 30.20 in 10.0 mi WSW 5.8 mph - N/A   Clear
4:15 AM 37.4 °F 32.8 °F 30.2 °F 75% 30.20 in 10.0 mi West 5.8 mph - N/A   Clear
4:35 AM 39.2 °F 34.2 °F 30.2 °F 70% 30.20 in 10.0 mi WSW 6.9 mph - N/A   Clear
4:55 AM 37.4 °F 32.8 °F 30.2 °F 75% 30.20 in 10.0 mi WSW 5.8 mph - N/A   Clear
5:15 AM 37.4 °F 32.1 °F 30.2 °F 75% 30.20 in 10.0 mi West 6.9 mph - N/A   Clear
5:35 AM 39.2 °F 35.0 °F 30.2 °F 70% 30.20 in 10.0 mi West 5.8 mph - N/A   Clear
5:55 AM 39.2 °F 34.2 °F 30.2 °F 70% 30.20 in 10.0 mi WSW 6.9 mph - N/A   Clear
6:15 AM 39.2 °F 34.2 °F 30.2 °F 70% 30.20 in 10.0 mi WSW 6.9 mph - N/A   Clear
6:35 AM 37.4 °F 32.1 °F 30.2 °F 75% 30.20 in 10.0 mi West 6.9 mph - N/A   Clear
6:55 AM 37.4 °F 33.8 °F 30.2 °F 75% 30.20 in 10.0 mi WSW 4.6 mph - N/A   Clear
7:15 AM 35.6 °F 30.7 °F 30.2 °F 81% 30.21 in 10.0 mi SW 5.8 mph - N/A   Clear
7:35 AM 35.6 °F 29.9 °F 30.2 °F 81% 30.21 in 10.0 mi SW 6.9 mph - N/A   Clear
7:55 AM 35.6 °F 29.9 °F 30.2 °F 81% 30.21 in 10.0 mi SW 6.9 mph - N/A   Clear
8:15 AM 37.4 °F 31.4 °F 30.2 °F 75% 30.21 in 10.0 mi WSW 8.1 mph - N/A   Clear
8:35 AM 41.0 °F 35.8 °F 30.2 °F 65% 30.22 in 10.0 mi WSW 8.1 mph - N/A   Clear
8:55 AM 44.6 °F 40.7 °F 30.2 °F 57% 30.22 in 10.0 mi WSW 6.9 mph - N/A   Clear
9:15 AM 46.4 °F 42.9 °F 30.2 °F 53% 30.22 in 10.0 mi West 6.9 mph - N/A   Clear
9:35 AM 50.0 °F - 30.2 °F 47% 30.23 in 10.0 mi WSW 8.1 mph - N/A   Clear
9:55 AM 51.8 °F - 30.2 °F 44% 30.23 in 10.0 mi West 6.9 mph - N/A   Clear
10:15 AM 53.6 °F - 32.0 °F 44% 30.23 in 10.0 mi WSW 9.2 mph - N/A   Clear
10:35 AM 57.2 °F - 32.0 °F 38% 30.22 in 10.0 mi WSW 8.1 mph - N/A   Clear
10:55 AM 60.8 °F - 32.0 °F 34% 30.22 in 10.0 mi WSW 9.2 mph - N/A   Clear
11:15 AM 62.6 °F - 30.2 °F 30% 30.22 in 10.0 mi WSW 12.7 mph 19.6 mph N/A   Clear
11:35 AM 64.4 °F - 30.2 °F 28% 30.21 in 10.0 mi WSW 13.8 mph 18.4 mph N/A   Clear
11:55 AM 64.4 °F - 30.2 °F 28% 30.20 in 10.0 mi West 11.5 mph 19.6 mph N/A   Clear
12:15 PM 66.2 °F - 30.2 °F 26% 30.20 in 10.0 mi SW 11.5 mph 19.6 mph N/A   Clear
12:35 PM 66.2 °F - 30.2 °F 26% 30.19 in 10.0 mi SW 13.8 mph 17.3 mph N/A   Clear
12:55 PM 68.0 °F - 30.2 °F 24% 30.18 in 10.0 mi SW 15.0 mph - N/A   Clear
1:15 PM 68.0 °F - 30.2 °F 24% 30.17 in 10.0 mi SW 9.2 mph 20.7 mph N/A   Clear
1:35 PM 68.0 °F - 30.2 °F 24% 30.16 in 10.0 mi SW 13.8 mph 20.7 mph N/A   Clear
1:55 PM 69.8 °F - 30.2 °F 23% 30.15 in 10.0 mi WSW 16.1 mph 19.6 mph N/A   Clear
2:15 PM 69.8 °F - 30.2 °F 23% 30.13 in 10.0 mi SW 16.1 mph 21.9 mph N/A   Clear
2:35 PM 69.8 °F - 30.2 °F 23% 30.12 in 10.0 mi SW 11.5 mph 26.5 mph N/A   Clear
2:55 PM 69.8 °F - 32.0 °F 25% 30.10 in 10.0 mi SSW 11.5 mph 23.0 mph N/A   Clear
3:15 PM 69.8 °F - 32.0 °F 25% 30.09 in 10.0 mi SSW 12.7 mph 20.7 mph N/A   Clear
3:35 PM 69.8 °F - 30.2 °F 23% 30.07 in 10.0 mi SSW 10.4 mph 17.3 mph N/A   Clear
3:55 PM 71.6 °F - 32.0 °F 23% 30.07 in 10.0 mi SSW 13.8 mph 25.3 mph N/A   Clear
4:15 PM 71.6 °F - 32.0 °F 23% 30.06 in 10.0 mi SW 15.0 mph 25.3 mph N/A   Clear
4:35 PM 69.8 °F - 30.2 °F 23% 30.05 in 10.0 mi SW 13.8 mph 21.9 mph N/A   Clear
4:55 PM 69.8 °F - 30.2 °F 23% 30.04 in 10.0 mi WSW 16.1 mph 24.2 mph N/A   Clear
5:15 PM 69.8 °F - 30.2 °F 23% 30.03 in 10.0 mi SSW 21.9 mph 26.5 mph N/A   Clear
5:35 PM 69.8 °F - 30.2 °F 23% 30.02 in 10.0 mi SSW 13.8 mph 23.0 mph N/A   Clear
5:55 PM 69.8 °F - 30.2 °F 23% 30.01 in 10.0 mi SW 15.0 mph 23.0 mph N/A   Clear
6:15 PM 68.0 °F - 30.2 °F 24% 30.01 in 10.0 mi SW 18.4 mph 23.0 mph N/A   Clear
6:35 PM 66.2 °F - 30.2 °F 26% 30.01 in 10.0 mi SW 13.8 mph - N/A   Clear
6:55 PM 68.0 °F - 30.2 °F 24% 30.00 in 10.0 mi SSW 15.0 mph 23.0 mph N/A   Clear
7:15 PM 64.4 °F - 30.2 °F 28% 30.00 in 10.0 mi SSW 13.8 mph 18.4 mph N/A   Clear
7:35 PM 62.6 °F - 30.2 °F 30% 30.00 in 10.0 mi SSW 9.2 mph - N/A   Clear
7:55 PM 60.8 °F - 30.2 °F 31% 30.00 in 10.0 mi SSW 8.1 mph - N/A   Clear
8:15 PM 59.0 °F - 30.2 °F 34% 29.99 in 10.0 mi SSW 6.9 mph - N/A   Clear
8:35 PM 55.4 °F - 30.2 °F 38% 29.99 in 10.0 mi SSW 6.9 mph - N/A   Clear
8:55 PM 53.6 °F - 30.2 °F 41% 29.99 in 10.0 mi SSW 8.1 mph - N/A   Clear
9:15 PM 53.6 °F - 30.2 °F 41% 29.99 in 10.0 mi SSW 5.8 mph - N/A   Clear
9:35 PM 53.6 °F - 30.2 °F 41% 29.98 in 10.0 mi South 5.8 mph - N/A   Clear
9:55 PM 51.8 °F - 30.2 °F 44% 29.98 in 10.0 mi South 5.8 mph - N/A   Clear
10:15 PM 51.8 °F - 30.2 °F 44% 29.98 in 7.0 mi South 6.9 mph - N/A   Clear
10:35 PM 50.0 °F - 32.0 °F 50% 29.98 in 10.0 mi South 8.1 mph - N/A   Clear
10:55 PM 51.8 °F - 32.0 °F 47% 29.97 in 10.0 mi South 8.1 mph - N/A   Clear
11:15 PM 50.0 °F - 32.0 °F 50% 29.97 in 10.0 mi South 8.1 mph - N/A   Clear
11:35 PM 51.8 °F - 32.0 °F 47% 29.97 in 10.0 mi SSW 9.2 mph - N/A   Clear
11:55 PM 51.8 °F - 32.0 °F 47% 29.97 in 10.0 mi SSW 8.1 mph - N/A   Clear